Погода в Большой Дороге

Россия / Тамбовская область     53°24′10″N   40°40′56″E
темп.,
°C
ветер,
м/с
пор.,
м/с
влажн.,
%
обл.,
%
осадки,
мм/ч
давл.,
гПа
погр.,
м
6 мая, чт
чт600:00+8ююз411815 0.0 1013200
03:00+7ююз5138467 0.0 1013227
06:00+8ю51281100 0.0 1012242
09:00+13ююз71268100 0.0 1013557
12:00+16ююз81155100 0.0 10121335
15:00+16ююз81357100 0.0 10111900
18:00+15ююз71260100 0.0 1010958
21:00+12ю61567100 0.0 1011476
7 мая, пт
пт700:00+12юз3774100 0.0 1010283
03:00+9сз4691100 0.1 1011442
06:00+8сз4993100 1.6 1012819
09:00+8ююв2185100 5.8 1014376
12:00+12зсз35555 0.3 10141555
15:00+14зсз35425 0.3 10152130
18:00+14зсз12465 0.0 10151664
21:00+10ююв3356100 0.0 101621
8 мая, сб
сб800:00+8ююв486498 0.0 1016122
03:00+7ююв4108198 0.0 1016203
06:00+7ююв61379100 0.0 1014347
09:00+10юв81371100 0.0 1012575
12:00+10ююв71575100 0.4 1010712
15:00+14ю81577100 0.6 10081070
18:00+11ююз81493100 2.6 1007835
21:00+11юз5995100 5.4 1008554
9 мая, вс
вс900:00+9зюз51093100 1.9 1009573
03:00+5з6988100 2.3 1011639
06:00+5зсз51087100 0.0 1013748
09:00+7сз5775100 0.0 10151033
12:00+8ссз5773100 0.1 1016998
15:00+9с5773100 0.1 1018934
18:00+9ссз697482 0.1 1020653
21:00+6ссз41083100 0.1 1023264
10 мая, пн
пн1000:00+5с5108681 0.0 1024278
03:00+4с512864 0.0 1026280
06:00+5с5138385 0.0 1028408
09:00+10ссв811601 0.0 1028933
12:00+13св810524 0.0 10281276
15:00+14св89485 0.0 10281381
18:00+13ссв710605 0.0 1028804
21:00+9св512705 0.0 1029281